This is the latest recevied weather packets stored in our database for station/object K2BIG. If no packets are shown the sender has not sent any weather packets the latest 10 day(s).
| Time | Temp. | Humidity | Pressure | Rain* | Wind** | Luminosity | Snow |
|---|---|---|---|---|---|---|---|
| 1777813216 | 8.89° C | 60% | 1011.9 hPa | 0 mm | - | - | - |
| 1777812916 | 8.89° C | 59% | 1012 hPa | 0 mm | - | - | - |
| 1777812616 | 8.33° C | 59% | 1011.9 hPa | 0 mm | - | - | - |
| 1777812316 | 8.33° C | 60% | 1011.9 hPa | 0 mm | - | - | - |
| 1777812016 | 8.89° C | 59% | 1011.9 hPa | 0 mm | - | - | - |
| 1777811716 | 8.89° C | 59% | 1012 hPa | 0 mm | - | - | - |
| 1777811416 | 8.89° C | 60% | 1011.9 hPa | 0 mm | - | - | - |
| 1777811116 | 8.89° C | 61% | 1011.7 hPa | 0 mm | - | - | - |
| 1777810816 | 9.44° C | 61% | 1011.7 hPa | 0 mm | - | - | - |
| 1777810516 | 8.89° C | 63% | 1011.7 hPa | 0 mm | - | - | - |
| 1777810216 | 8.33° C | 64% | 1011.7 hPa | 0 mm | - | - | - |
| 1777809916 | 7.78° C | 68% | 1011.7 hPa | 0 mm | - | - | - |
| 1777809616 | 7.22° C | 69% | 1011.7 hPa | 0 mm | - | - | - |
| 1777809317 | 6.67° C | 70% | 1011.8 hPa | 0 mm | - | - | - |
| 1777809016 | 6.67° C | 70% | 1011.8 hPa | 0 mm | - | - | - |
| 1777808716 | 6.11° C | 71% | 1011.7 hPa | 0 mm | - | - | - |
| 1777808416 | 5.56° C | 72% | 1011.7 hPa | 0 mm | - | - | - |
| 1777808116 | 5.56° C | 74% | 1011.7 hPa | 0 mm | - | - | - |
| 1777807816 | 5° C | 74% | 1011.5 hPa | 0 mm | - | - | - |
| 1777807516 | 5° C | 74% | 1011.5 hPa | 0 mm | - | - | - |
| 1777807216 | 4.44° C | 76% | 1011.5 hPa | 0 mm | - | - | - |
| 1777806916 | 4.44° C | 76% | 1011.5 hPa | 0 mm | - | - | - |
| 1777806616 | 4.44° C | 76% | 1011.4 hPa | 0 mm | - | - | - |
| 1777806316 | 3.89° C | 77% | 1011.4 hPa | 0 mm | - | - | - |
| 1777806016 | 3.89° C | 77% | 1011.3 hPa | 0 mm | - | - | - |
* Rain latest hour (hover to see other rain measurements)
** Current wind speed in m/s (hover to see current wind gust speed)